{"data":{"norad_id":67104,"epoch":"2026-09-20T22:22:48.338688Z","epoch_age_seconds":41621,"freshness":"FRESH","line1":"1 67104U 25299C   26263.93250392  .00008325  00000+0  31159-3 0  9996","line2":"2 67104  43.0021 146.5745 0001463 265.7648  94.3037 15.27592178 42979","mean_motion":15.27592178,"eccentricity":0.0001463,"inclination_deg":43.0021,"raan_deg":146.5745,"arg_perigee_deg":265.7648,"mean_anomaly_deg":94.3037,"bstar":0.00031159,"rev_number":4297,"period_min":94.265997216961,"perigee_km":482.00884477788,"apogee_km":484.0164171599,"semimajor_km":6861.1496309689,"source":"CELESTRAK","updated_at":"2026-09-21T09:00:36.103798Z"}}